User: anonymous   Login
Location: Sandbanks Provincial Park
(47.6073°N, 57.6428°W)
Time: 00:59:36
(UTC-02:-30)
Language:

Cosmos 2034 Rocket - Orbit

View from above orbital plane
View from above orbital plane
View from above satellite
View from above satellite

Ground track
Ground track

The orbit data is extracted from the following two-line orbital elements,

1 20150U 89059B   16211.86976998  .00000004  00000-0 -11652-4 0  9996
2 20150  82.9418 333.1963 0030281 102.1914  10.7131 13.75618131356072
Epoch (UTC): 29 July 2016 20:52:28
Eccentricity: 0.0030281
inclination: 82.9418°
perigee height: 957 km
apogee height: 1002 km
right ascension of ascending node: 333.1963°
argument of perigee: 102.1914°
revolutions per day: 13.75618131
mean anomaly at epoch: 10.7131°
orbit number at epoch: 35607

The dashed part of the orbit path shows where the satellite is in the earth's shadow,  

DLR